Year,Month,Day,Hour,Minute,Value (Times are PST for temperature in C)
2013,03,25,00,00,5.60
2013,03,25,00,01,5.60
2013,03,25,00,02,5.60
2013,03,25,00,03,5.60
2013,03,25,00,04,5.60
2013,03,25,00,05,5.50
2013,03,25,00,06,5.50
2013,03,25,00,07,5.50
2013,03,25,00,08,5.50
2013,03,25,00,09,5.50
2013,03,25,00,10,5.40
2013,03,25,00,11,5.40
2013,03,25,00,12,5.40
2013,03,25,00,18,5.30
2013,03,25,00,19,5.30
2013,03,25,00,20,5.30
2013,03,25,00,21,5.30
2013,03,25,00,22,5.30
2013,03,25,00,23,5.30
2013,03,25,00,24,5.30
2013,03,25,00,25,5.20
2013,03,25,00,26,5.20
2013,03,25,00,27,5.20
2013,03,25,00,28,5.20
2013,03,25,00,29,5.20
2013,03,25,00,30,5.20
2013,03,25,00,31,5.20
2013,03,25,00,32,5.20
2013,03,25,00,33,5.20
2013,03,25,00,34,5.20
2013,03,25,00,35,5.20
2013,03,25,00,36,5.10
2013,03,25,00,37,5.10
2013,03,25,00,38,5.10
2013,03,25,00,39,5.10
2013,03,25,00,40,5.10
2013,03,25,00,41,5.10
2013,03,25,00,42,5.10
2013,03,25,00,43,5.10
2013,03,25,00,44,5.10
2013,03,25,00,45,5.10
2013,03,25,00,46,5.00
2013,03,25,00,47,5.00
2013,03,25,00,48,5.00
2013,03,25,00,49,5.00
2013,03,25,00,50,5.00
2013,03,25,00,51,5.00
2013,03,25,00,52,4.90
2013,03,25,00,53,4.90
2013,03,25,00,54,4.90
2013,03,25,00,55,4.90
2013,03,25,00,56,4.90
2013,03,25,00,57,4.90
2013,03,25,00,58,4.90
2013,03,25,00,59,4.90
2013,03,25,01,00,4.90
2013,03,25,01,01,4.90
2013,03,25,01,02,4.90
2013,03,25,01,03,4.90
2013,03,25,01,04,4.90
2013,03,25,01,05,4.90
2013,03,25,01,06,4.90
2013,03,25,01,07,4.90
2013,03,25,01,08,5.00
2013,03,25,01,09,5.00
2013,03,25,01,10,5.00
2013,03,25,01,11,5.00
2013,03,25,01,12,4.90
2013,03,25,01,13,4.90
2013,03,25,01,14,4.90
2013,03,25,01,15,4.90
2013,03,25,01,16,4.90
2013,03,25,01,17,4.90
2013,03,25,01,18,4.90
2013,03,25,01,19,4.90
2013,03,25,01,20,4.90
2013,03,25,01,21,4.90
2013,03,25,01,22,4.90
2013,03,25,01,23,4.90
2013,03,25,01,24,4.90
2013,03,25,01,25,4.90
2013,03,25,01,26,4.90
2013,03,25,01,27,4.90
2013,03,25,01,28,4.90
2013,03,25,01,29,4.90
2013,03,25,01,30,4.80
2013,03,25,01,31,4.80
2013,03,25,01,32,4.80
2013,03,25,01,33,4.80
2013,03,25,01,34,4.80
2013,03,25,01,35,4.80
2013,03,25,01,36,4.80
2013,03,25,01,37,4.80
2013,03,25,01,38,4.80
2013,03,25,01,39,4.80
2013,03,25,01,40,4.80
2013,03,25,01,41,4.80
2013,03,25,01,42,4.80
2013,03,25,01,43,4.80
2013,03,25,01,44,4.70
2013,03,25,01,45,4.70
2013,03,25,01,46,4.70
2013,03,25,01,47,4.70
2013,03,25,01,48,4.70
2013,03,25,01,49,4.70
2013,03,25,01,50,4.70
2013,03,25,01,51,4.70
2013,03,25,01,52,4.70
2013,03,25,01,53,4.70
2013,03,25,01,54,4.70
2013,03,25,01,55,4.70
2013,03,25,01,56,4.70
2013,03,25,01,57,4.60
2013,03,25,01,58,4.60
2013,03,25,01,59,4.60
2013,03,25,02,00,4.60
2013,03,25,02,01,4.60
2013,03,25,02,02,4.60
2013,03,25,02,03,4.60
2013,03,25,02,04,4.50
2013,03,25,02,05,4.50
2013,03,25,02,06,4.50
2013,03,25,02,07,4.50
2013,03,25,02,08,4.50
2013,03,25,02,09,4.50
2013,03,25,02,10,4.50
2013,03,25,02,11,4.40
2013,03,25,02,12,4.40
2013,03,25,02,13,4.40
2013,03,25,02,14,4.40
2013,03,25,02,15,4.40
2013,03,25,02,16,4.40
2013,03,25,02,17,4.30
2013,03,25,02,18,4.30
2013,03,25,02,19,4.30
2013,03,25,02,20,4.30
2013,03,25,02,21,4.30
2013,03,25,02,22,4.30
2013,03,25,02,23,4.20
2013,03,25,02,24,4.20
2013,03,25,02,25,4.20
2013,03,25,02,26,4.20
2013,03,25,02,27,4.20
2013,03,25,02,28,4.10
2013,03,25,02,29,4.10
2013,03,25,02,30,4.10
2013,03,25,02,31,4.10
2013,03,25,02,32,4.10
2013,03,25,02,33,4.10
2013,03,25,02,34,4.00
2013,03,25,02,35,4.00
2013,03,25,02,36,4.00
2013,03,25,02,37,3.90
2013,03,25,02,38,3.90
2013,03,25,02,39,3.90
2013,03,25,02,40,3.90
2013,03,25,02,41,3.90
2013,03,25,02,42,3.90
2013,03,25,02,43,3.90
2013,03,25,02,44,3.90
2013,03,25,02,45,3.90
2013,03,25,02,46,3.90
2013,03,25,02,47,3.90
2013,03,25,02,48,3.90
2013,03,25,02,49,3.90
2013,03,25,02,50,3.90
2013,03,25,02,51,3.80
2013,03,25,02,52,3.80
2013,03,25,02,53,3.80
2013,03,25,02,54,3.80
2013,03,25,02,55,3.80
2013,03,25,02,56,3.80
2013,03,25,02,57,3.80
2013,03,25,02,58,3.80
2013,03,25,02,59,3.80
2013,03,25,03,00,3.80
2013,03,25,03,01,3.80
2013,03,25,03,02,3.80
2013,03,25,03,03,3.80
2013,03,25,03,04,3.80
2013,03,25,03,05,3.70
2013,03,25,03,06,3.70
2013,03,25,03,07,3.70
2013,03,25,03,08,3.70
2013,03,25,03,09,3.70
2013,03,25,03,10,3.70
2013,03,25,03,11,3.70
2013,03,25,03,12,3.70
2013,03,25,03,13,3.70
2013,03,25,03,14,3.70
2013,03,25,03,15,3.70
2013,03,25,03,16,3.70
2013,03,25,03,17,3.70
2013,03,25,03,18,3.70
2013,03,25,03,19,3.70
2013,03,25,03,20,3.70
2013,03,25,03,21,3.70
2013,03,25,03,22,3.70
2013,03,25,03,23,3.70
2013,03,25,03,24,3.70
2013,03,25,03,25,3.70
2013,03,25,03,26,3.70
2013,03,25,03,27,3.70
2013,03,25,03,28,3.70
2013,03,25,03,29,3.70
2013,03,25,03,30,3.70
2013,03,25,03,31,3.70
2013,03,25,03,32,3.70
2013,03,25,03,33,3.70
2013,03,25,03,34,3.70
2013,03,25,03,35,3.70
2013,03,25,03,36,3.70
2013,03,25,03,37,3.70
2013,03,25,03,38,3.70
2013,03,25,03,39,3.70
2013,03,25,03,40,3.70
2013,03,25,03,41,3.70
2013,03,25,03,42,3.70
2013,03,25,03,43,3.70
2013,03,25,03,44,3.70
2013,03,25,03,45,3.70
2013,03,25,03,46,3.70
2013,03,25,03,47,3.70
2013,03,25,03,48,3.60
2013,03,25,03,49,3.60
2013,03,25,03,50,3.60
2013,03,25,03,51,3.60
2013,03,25,03,52,3.60
2013,03,25,03,53,3.60
2013,03,25,03,54,3.60
2013,03,25,03,55,3.60
2013,03,25,03,56,3.60
2013,03,25,03,57,3.60
2013,03,25,03,58,3.60
2013,03,25,03,59,3.60
2013,03,25,04,00,3.60
2013,03,25,04,01,3.60
2013,03,25,04,02,3.60
2013,03,25,04,03,3.60
2013,03,25,04,04,3.60
2013,03,25,04,05,3.60
2013,03,25,04,06,3.60
2013,03,25,04,07,3.60
2013,03,25,04,08,3.60
2013,03,25,04,09,3.60
2013,03,25,04,10,3.60
2013,03,25,04,11,3.60
2013,03,25,04,12,3.60
2013,03,25,04,13,3.60
2013,03,25,04,14,3.60
2013,03,25,04,15,3.60
2013,03,25,04,16,3.60
2013,03,25,04,17,3.60
2013,03,25,04,18,3.60
2013,03,25,04,19,3.60
2013,03,25,04,20,3.60
2013,03,25,04,21,3.60
2013,03,25,04,22,3.60
2013,03,25,04,23,3.50
2013,03,25,04,24,3.50
2013,03,25,04,25,3.50
2013,03,25,04,26,3.50
2013,03,25,04,27,3.50
2013,03,25,04,28,3.40
2013,03,25,04,29,3.40
2013,03,25,04,30,3.40
2013,03,25,04,31,3.40
2013,03,25,04,32,3.40
2013,03,25,04,33,3.40
2013,03,25,04,34,3.30
2013,03,25,04,35,3.30
2013,03,25,04,36,3.30
2013,03,25,04,37,3.30
2013,03,25,04,38,3.30
2013,03,25,04,39,3.30
2013,03,25,04,40,3.30
2013,03,25,04,41,3.30
2013,03,25,04,42,3.30
2013,03,25,04,43,3.20
2013,03,25,04,44,3.20
2013,03,25,04,45,3.20
2013,03,25,04,46,3.20
2013,03,25,04,47,3.10
2013,03,25,04,48,3.10
2013,03,25,04,49,3.10
2013,03,25,04,50,3.00
2013,03,25,04,51,3.00
2013,03,25,04,52,3.00
2013,03,25,04,53,2.90
2013,03,25,04,54,2.90
2013,03,25,04,55,2.90
2013,03,25,04,56,2.90
2013,03,25,04,57,2.80
2013,03,25,04,58,2.80
2013,03,25,04,59,2.80
2013,03,25,05,00,2.80
2013,03,25,05,01,2.70
2013,03,25,05,02,2.70
2013,03,25,05,03,2.70
2013,03,25,05,04,2.70
2013,03,25,05,05,2.60
2013,03,25,05,06,2.60
2013,03,25,05,07,2.60
2013,03,25,05,08,2.50
2013,03,25,05,09,2.50
2013,03,25,05,10,2.40
2013,03,25,05,11,2.40
2013,03,25,05,12,2.40
2013,03,25,05,13,2.30
2013,03,25,05,14,2.30
2013,03,25,05,15,2.30
2013,03,25,05,16,2.20
2013,03,25,05,17,2.20
2013,03,25,05,18,2.20
2013,03,25,05,19,2.20
2013,03,25,05,20,2.10
2013,03,25,05,21,2.10
2013,03,25,05,22,2.10
2013,03,25,05,23,2.10
2013,03,25,05,24,2.00
2013,03,25,05,25,2.00
2013,03,25,05,26,2.00
2013,03,25,05,27,1.90
2013,03,25,05,28,1.90
2013,03,25,05,29,1.90
2013,03,25,05,30,1.90
2013,03,25,05,31,1.80
2013,03,25,05,32,1.80
2013,03,25,05,33,1.80
2013,03,25,05,34,1.80
2013,03,25,05,35,1.80
2013,03,25,05,36,1.70
2013,03,25,05,37,1.70
2013,03,25,05,38,1.70
2013,03,25,05,39,1.70
2013,03,25,05,40,1.70
2013,03,25,05,41,1.70
2013,03,25,05,42,1.70
2013,03,25,05,43,1.60
2013,03,25,05,44,1.60
2013,03,25,05,45,1.60
2013,03,25,05,46,1.60
2013,03,25,05,47,1.60
2013,03,25,05,48,1.50
2013,03,25,05,49,1.50
2013,03,25,05,50,1.50
2013,03,25,05,51,1.50
2013,03,25,05,52,1.40
2013,03,25,05,53,1.40
2013,03,25,05,54,1.40
2013,03,25,05,55,1.40
2013,03,25,05,56,1.40
2013,03,25,05,57,1.40
2013,03,25,05,58,1.40
2013,03,25,05,59,1.40
2013,03,25,06,00,1.40
2013,03,25,06,01,1.40
2013,03,25,06,02,1.40
2013,03,25,06,03,1.40
2013,03,25,06,04,1.40
2013,03,25,06,05,1.30
2013,03,25,06,06,1.30
2013,03,25,06,07,1.30
2013,03,25,06,08,1.30
2013,03,25,06,09,1.30
2013,03,25,06,10,1.30
2013,03,25,06,11,1.30
2013,03,25,06,12,1.30
2013,03,25,06,13,1.30
2013,03,25,06,14,1.30
2013,03,25,06,15,1.20
2013,03,25,06,16,1.20
2013,03,25,06,17,1.20
2013,03,25,06,18,1.20
2013,03,25,06,19,1.20
2013,03,25,06,20,1.20
2013,03,25,06,21,1.10
2013,03,25,06,22,1.10
2013,03,25,06,23,1.10
2013,03,25,06,24,1.10
2013,03,25,06,25,1.10
2013,03,25,06,26,1.10
2013,03,25,06,27,1.10
2013,03,25,06,28,1.10
2013,03,25,06,29,1.10
2013,03,25,06,30,1.10
2013,03,25,06,31,1.00
2013,03,25,06,32,1.00
2013,03,25,06,33,1.00
2013,03,25,06,34,0.90
2013,03,25,06,35,0.90
2013,03,25,06,36,0.90
2013,03,25,06,37,0.90
2013,03,25,06,38,0.80
2013,03,25,06,39,0.80
2013,03,25,06,40,0.80
2013,03,25,06,41,0.80
2013,03,25,06,42,0.80
2013,03,25,06,43,0.80
2013,03,25,06,44,0.80
2013,03,25,06,45,0.80
2013,03,25,06,46,0.80
2013,03,25,06,47,0.80
2013,03,25,06,48,0.80
2013,03,25,06,49,0.80
2013,03,25,06,50,0.80
2013,03,25,06,51,0.80
2013,03,25,06,52,0.80
2013,03,25,06,53,0.80
2013,03,25,06,54,0.80
2013,03,25,06,55,0.80
2013,03,25,06,56,0.80
2013,03,25,06,57,0.80
2013,03,25,06,58,0.70
2013,03,25,06,59,0.70
2013,03,25,07,00,0.70
2013,03,25,07,01,0.70
2013,03,25,07,02,0.70
2013,03,25,07,03,0.70
2013,03,25,07,04,0.60
2013,03,25,07,05,0.60
2013,03,25,07,06,0.60
2013,03,25,07,07,0.60
2013,03,25,07,08,0.60
2013,03,25,07,09,0.60
2013,03,25,07,10,0.60
2013,03,25,07,11,0.60
2013,03,25,07,12,0.50
2013,03,25,07,13,0.50
2013,03,25,07,14,0.50
2013,03,25,07,15,0.50
2013,03,25,07,16,0.50
2013,03,25,07,17,0.50
2013,03,25,07,18,0.50
2013,03,25,07,19,0.50
2013,03,25,07,20,0.50
2013,03,25,07,21,0.50
2013,03,25,07,22,0.50
2013,03,25,07,23,0.50
2013,03,25,07,24,0.50
2013,03,25,07,25,0.50
2013,03,25,07,26,0.40
2013,03,25,07,27,0.40
2013,03,25,07,28,0.50
2013,03,25,07,29,0.50
2013,03,25,07,30,0.50
2013,03,25,07,31,0.50
2013,03,25,07,32,0.50
2013,03,25,07,33,0.50
2013,03,25,07,34,0.50
2013,03,25,07,35,0.50
2013,03,25,07,36,0.50
2013,03,25,07,37,0.50
2013,03,25,07,38,0.50
2013,03,25,07,39,0.40
2013,03,25,07,40,0.40
2013,03,25,07,41,0.40
2013,03,25,07,42,0.40
2013,03,25,07,43,0.40
2013,03,25,07,44,0.40
2013,03,25,07,45,0.50
2013,03,25,07,46,0.50
2013,03,25,07,47,0.50
2013,03,25,07,48,0.50
2013,03,25,07,49,0.50
2013,03,25,07,50,0.50
2013,03,25,07,51,0.60
2013,03,25,07,52,0.60
2013,03,25,07,53,0.60
2013,03,25,07,54,0.60
2013,03,25,07,55,0.60
2013,03,25,07,56,0.70
2013,03,25,07,57,0.70
2013,03,25,07,58,0.70
2013,03,25,07,59,0.80
2013,03,25,08,00,0.80
2013,03,25,08,01,0.90
2013,03,25,08,02,1.00
2013,03,25,08,03,1.10
2013,03,25,08,04,1.20
2013,03,25,08,05,1.20
2013,03,25,08,06,1.30
2013,03,25,08,07,1.30
2013,03,25,08,08,1.40
2013,03,25,08,09,1.50
2013,03,25,08,10,1.60
2013,03,25,08,11,1.70
2013,03,25,08,12,1.80
2013,03,25,08,13,1.90
2013,03,25,08,14,2.00
2013,03,25,08,15,2.10
2013,03,25,08,16,2.20
2013,03,25,08,17,2.30
2013,03,25,08,18,2.40
2013,03,25,08,19,2.60
2013,03,25,08,20,2.70
2013,03,25,08,21,2.80
2013,03,25,08,22,2.90
2013,03,25,08,23,3.00
2013,03,25,08,24,3.10
2013,03,25,08,25,3.20
2013,03,25,08,26,3.30
2013,03,25,08,27,3.50
2013,03,25,08,28,3.60
2013,03,25,08,29,3.70
2013,03,25,08,30,3.80
2013,03,25,08,31,3.90
2013,03,25,08,32,4.00
2013,03,25,08,33,4.10
2013,03,25,08,34,4.20
2013,03,25,08,35,4.30
2013,03,25,08,36,4.40
2013,03,25,08,37,4.50
2013,03,25,08,38,4.70
2013,03,25,08,39,4.70
2013,03,25,08,40,4.80
2013,03,25,08,41,4.90
2013,03,25,08,42,4.90
2013,03,25,08,43,5.00
2013,03,25,08,44,5.10
2013,03,25,08,45,5.20
2013,03,25,08,46,5.20
2013,03,25,08,47,5.30
2013,03,25,08,48,5.30
2013,03,25,08,49,5.40
2013,03,25,08,50,5.50
2013,03,25,08,51,5.60
2013,03,25,08,52,5.70
2013,03,25,08,53,5.70
2013,03,25,08,54,5.80
2013,03,25,08,55,5.90
2013,03,25,08,56,6.00
2013,03,25,08,57,6.10
2013,03,25,08,58,6.20
2013,03,25,08,59,6.20
2013,03,25,09,00,6.30
2013,03,25,09,01,6.40
2013,03,25,09,02,6.50
2013,03,25,09,03,6.50
2013,03,25,09,04,6.60
2013,03,25,09,05,6.70
2013,03,25,09,06,6.70
2013,03,25,09,07,6.80
2013,03,25,09,08,6.80
2013,03,25,09,09,6.80
2013,03,25,09,10,6.90
2013,03,25,09,11,6.90
2013,03,25,09,12,7.00
2013,03,25,09,13,7.00
2013,03,25,09,14,7.10
2013,03,25,09,15,7.20
2013,03,25,09,16,7.20
2013,03,25,09,17,7.20
2013,03,25,09,18,7.30
2013,03,25,09,19,7.40
2013,03,25,09,20,7.40
2013,03,25,09,21,7.50
2013,03,25,09,22,7.60
2013,03,25,09,23,7.60
2013,03,25,09,24,7.70
2013,03,25,09,25,7.80
2013,03,25,09,26,7.80
2013,03,25,09,27,7.90
2013,03,25,09,28,8.00
2013,03,25,09,29,8.00
2013,03,25,09,30,8.10
2013,03,25,09,31,8.10
2013,03,25,09,32,8.20
2013,03,25,09,33,8.20
2013,03,25,09,34,8.20
2013,03,25,09,35,8.30
2013,03,25,09,36,8.30
2013,03,25,09,37,8.40
2013,03,25,09,38,8.50
2013,03,25,09,39,8.60
2013,03,25,09,40,8.70
2013,03,25,09,41,8.70
2013,03,25,09,42,8.80
2013,03,25,09,43,8.90
2013,03,25,09,44,8.90
2013,03,25,09,45,9.00
2013,03,25,09,46,9.00
2013,03,25,09,47,9.10
2013,03,25,09,48,9.10
2013,03,25,09,49,9.10
2013,03,25,09,50,9.20
2013,03,25,09,51,9.20
2013,03,25,09,52,9.30
2013,03,25,09,53,9.40
2013,03,25,09,54,9.40
2013,03,25,09,55,9.40
2013,03,25,09,56,9.50
2013,03,25,09,57,9.60
2013,03,25,09,58,9.60
2013,03,25,09,59,9.60
2013,03,25,10,00,9.70
2013,03,25,10,01,9.70
2013,03,25,10,02,9.80
2013,03,25,10,03,9.80
2013,03,25,10,04,9.90
2013,03,25,10,05,9.90
2013,03,25,10,06,9.90
2013,03,25,10,07,9.90
2013,03,25,10,08,10.00
2013,03,25,10,09,10.00
2013,03,25,10,10,10.10
2013,03,25,10,11,10.00
2013,03,25,10,12,10.00
2013,03,25,10,13,9.90
2013,03,25,10,14,9.90
2013,03,25,10,15,9.90
2013,03,25,10,16,9.90
2013,03,25,10,17,9.90
2013,03,25,10,18,10.00
2013,03,25,10,19,10.00
2013,03,25,10,20,10.10
2013,03,25,10,21,10.10
2013,03,25,10,22,10.10
2013,03,25,10,23,10.10
2013,03,25,10,24,10.10
2013,03,25,10,25,10.10
2013,03,25,10,26,10.10
2013,03,25,10,27,10.00
2013,03,25,10,28,10.00
2013,03,25,10,29,10.00
2013,03,25,10,30,9.80
2013,03,25,10,31,9.80
2013,03,25,10,32,9.80
2013,03,25,10,33,9.90
2013,03,25,10,34,9.80
2013,03,25,10,35,9.80
2013,03,25,10,36,9.80
2013,03,25,10,37,9.80
2013,03,25,10,38,9.90
2013,03,25,10,39,9.90
2013,03,25,10,40,9.80
2013,03,25,10,41,9.90
2013,03,25,10,42,9.90
2013,03,25,10,43,10.00
2013,03,25,10,44,10.10
2013,03,25,10,45,10.20
2013,03,25,10,46,10.20
2013,03,25,10,47,10.10
2013,03,25,10,48,10.10
2013,03,25,10,49,10.00
2013,03,25,10,50,10.00
2013,03,25,10,51,10.00
2013,03,25,10,52,10.10
2013,03,25,10,53,10.10
2013,03,25,10,54,10.10
2013,03,25,10,55,10.10
2013,03,25,10,56,10.10
2013,03,25,10,57,10.10
2013,03,25,10,58,10.20
2013,03,25,10,59,10.20
2013,03,25,11,00,10.30
2013,03,25,11,01,10.30
2013,03,25,11,02,10.40
2013,03,25,11,03,10.50
2013,03,25,11,04,10.60
2013,03,25,11,05,10.60
2013,03,25,11,06,10.50
2013,03,25,11,07,10.30
2013,03,25,11,08,10.20
2013,03,25,11,09,10.10
2013,03,25,11,10,10.10
2013,03,25,11,11,10.20
2013,03,25,11,12,10.20
2013,03,25,11,13,10.20
2013,03,25,11,14,10.20
2013,03,25,11,15,10.20
2013,03,25,11,16,10.20
2013,03,25,11,17,10.20
2013,03,25,11,18,10.30
2013,03,25,11,19,10.30
2013,03,25,11,20,10.30
2013,03,25,11,21,10.30
2013,03,25,11,22,10.30
2013,03,25,11,23,10.30
2013,03,25,11,24,10.40
2013,03,25,11,25,10.50
2013,03,25,11,26,10.60
2013,03,25,11,27,10.80
2013,03,25,11,28,10.80
2013,03,25,11,29,10.80
2013,03,25,11,30,10.70
2013,03,25,11,31,10.60
2013,03,25,11,32,10.60
2013,03,25,11,33,10.60
2013,03,25,11,34,10.60
2013,03,25,11,35,10.70
2013,03,25,11,36,10.80
2013,03,25,11,37,10.90
2013,03,25,11,38,11.00
2013,03,25,11,39,11.00
2013,03,25,11,40,11.10
2013,03,25,11,41,11.20
2013,03,25,11,42,11.20
2013,03,25,11,43,11.20
2013,03,25,11,44,11.20
2013,03,25,11,45,11.20
2013,03,25,11,46,11.20
2013,03,25,11,47,11.20
2013,03,25,11,48,11.30
2013,03,25,11,49,11.30
2013,03,25,11,50,11.30
2013,03,25,11,51,11.30
2013,03,25,11,52,11.30
2013,03,25,11,53,11.40
2013,03,25,11,54,11.40
2013,03,25,11,55,11.50
2013,03,25,11,56,11.60
2013,03,25,11,57,11.70
2013,03,25,11,58,11.80
2013,03,25,11,59,11.80
2013,03,25,12,00,11.80
2013,03,25,12,01,11.80
2013,03,25,12,02,11.80
2013,03,25,12,03,11.80
2013,03,25,12,04,11.80
2013,03,25,12,05,11.80
2013,03,25,12,06,11.80
2013,03,25,12,07,11.70
2013,03,25,12,08,11.70
2013,03,25,12,09,11.60
2013,03,25,12,10,11.50
2013,03,25,12,11,11.50
2013,03,25,12,12,11.40
2013,03,25,12,13,11.50
2013,03,25,12,14,11.60
2013,03,25,12,15,11.60
2013,03,25,12,16,11.50
2013,03,25,12,17,11.30
2013,03,25,12,18,11.20
2013,03,25,12,19,11.20
2013,03,25,12,20,11.30
2013,03,25,12,21,11.40
2013,03,25,12,22,11.50
2013,03,25,12,23,11.50
2013,03,25,12,24,11.60
2013,03,25,12,25,11.60
2013,03,25,12,26,11.70
2013,03,25,12,27,11.80
2013,03,25,12,28,11.80
2013,03,25,12,29,11.80
2013,03,25,12,30,11.70
2013,03,25,12,31,11.70
2013,03,25,12,32,11.70
2013,03,25,12,33,11.80
2013,03,25,12,34,11.80
2013,03,25,12,35,11.90
2013,03,25,12,36,12.00
2013,03,25,12,37,12.20
2013,03,25,12,38,12.30
2013,03,25,12,39,12.30
2013,03,25,12,40,12.30
2013,03,25,12,41,12.20
2013,03,25,12,42,12.10
2013,03,25,12,43,12.00
2013,03,25,12,44,11.90
2013,03,25,12,45,11.90
2013,03,25,12,46,11.80
2013,03,25,12,47,11.70
2013,03,25,12,48,11.70
2013,03,25,12,49,11.70
2013,03,25,12,50,11.70
2013,03,25,12,51,11.70
2013,03,25,12,52,11.70
2013,03,25,12,53,11.70
2013,03,25,12,54,11.70
2013,03,25,12,55,11.60
2013,03,25,12,56,11.60
2013,03,25,12,57,11.60
2013,03,25,12,58,11.70
2013,03,25,12,59,11.70
2013,03,25,13,00,11.90
2013,03,25,13,01,11.90
2013,03,25,13,02,12.00
2013,03,25,13,03,12.00
2013,03,25,13,04,12.10
2013,03,25,13,05,12.10
2013,03,25,13,06,12.00
2013,03,25,13,07,12.00
2013,03,25,13,08,11.90
2013,03,25,13,09,11.80
2013,03,25,13,10,11.70
2013,03,25,13,11,11.60
2013,03,25,13,12,11.50
2013,03,25,13,13,11.40
2013,03,25,13,14,11.30
2013,03,25,13,15,11.40
2013,03,25,13,16,11.40
2013,03,25,13,17,11.40
2013,03,25,13,18,11.50
2013,03,25,13,19,11.50
2013,03,25,13,20,11.60
2013,03,25,13,21,11.80
2013,03,25,13,22,12.00
2013,03,25,13,23,12.20
2013,03,25,13,24,12.40
2013,03,25,13,25,12.50
2013,03,25,13,26,12.40
2013,03,25,13,27,12.40
2013,03,25,13,28,12.50
2013,03,25,13,29,12.50
2013,03,25,13,30,12.50
2013,03,25,13,31,12.40
2013,03,25,13,32,12.30
2013,03,25,13,33,12.10
2013,03,25,13,34,12.00
2013,03,25,13,35,11.90
2013,03,25,13,36,11.90
2013,03,25,13,37,11.90
2013,03,25,13,38,12.00
2013,03,25,13,39,12.10
2013,03,25,13,40,12.20
2013,03,25,13,41,12.40
2013,03,25,13,42,12.60
2013,03,25,13,43,12.70
2013,03,25,13,44,12.50
2013,03,25,13,45,12.40
2013,03,25,13,46,12.40
2013,03,25,13,47,12.40
2013,03,25,13,48,12.40
2013,03,25,13,49,12.40
2013,03,25,13,50,12.40
2013,03,25,13,51,12.40
2013,03,25,13,52,12.40
2013,03,25,13,53,12.30
2013,03,25,13,54,12.20
2013,03,25,13,55,12.10
2013,03,25,13,56,12.10
2013,03,25,13,57,12.10
2013,03,25,13,58,12.10
2013,03,25,13,59,12.20
2013,03,25,14,00,12.20
2013,03,25,14,01,12.20
2013,03,25,14,02,12.20
2013,03,25,14,03,12.10
2013,03,25,14,04,12.10
2013,03,25,14,05,12.10
2013,03,25,14,06,12.10
2013,03,25,14,07,12.10
2013,03,25,14,08,12.20
2013,03,25,14,09,12.20
2013,03,25,14,10,12.30
2013,03,25,14,11,12.40
2013,03,25,14,12,12.50
2013,03,25,14,13,12.70
2013,03,25,14,14,12.80
2013,03,25,14,15,12.90
2013,03,25,14,16,13.00
2013,03,25,14,17,13.10
2013,03,25,14,18,13.10
2013,03,25,14,19,13.10
2013,03,25,14,20,13.10
2013,03,25,14,21,13.10
2013,03,25,14,22,12.90
2013,03,25,14,23,12.90
2013,03,25,14,24,13.00
2013,03,25,14,25,13.10
2013,03,25,14,26,13.10
2013,03,25,14,27,13.00
2013,03,25,14,28,12.80
2013,03,25,14,29,12.50
2013,03,25,14,30,12.30
2013,03,25,14,31,12.30
2013,03,25,14,32,12.30
2013,03,25,14,33,12.30
2013,03,25,14,34,12.40
2013,03,25,14,35,12.50
2013,03,25,14,36,12.70
2013,03,25,14,37,12.80
2013,03,25,14,38,12.90
2013,03,25,14,39,13.10
2013,03,25,14,40,13.20
2013,03,25,14,41,13.20
2013,03,25,14,42,13.20
2013,03,25,14,43,13.20
2013,03,25,14,44,13.20
2013,03,25,14,45,13.10
2013,03,25,14,46,12.90
2013,03,25,14,47,12.70
2013,03,25,14,48,12.60
2013,03,25,14,49,12.50
2013,03,25,14,50,12.40
2013,03,25,14,51,12.40
2013,03,25,14,52,12.30
2013,03,25,14,53,12.40
2013,03,25,14,54,12.40
2013,03,25,14,55,12.50
2013,03,25,14,56,12.60
2013,03,25,14,57,12.70
2013,03,25,14,58,12.80
2013,03,25,14,59,12.90
2013,03,25,15,00,13.10
2013,03,25,15,01,13.20
2013,03,25,15,02,13.40
2013,03,25,15,03,13.60
2013,03,25,15,04,13.70
2013,03,25,15,05,13.80
2013,03,25,15,06,13.90
2013,03,25,15,07,13.90
2013,03,25,15,08,13.90
2013,03,25,15,09,13.90
2013,03,25,15,10,13.90
2013,03,25,15,11,13.80
2013,03,25,15,12,13.70
2013,03,25,15,13,13.60
2013,03,25,15,14,13.50
2013,03,25,15,15,13.50
2013,03,25,15,16,13.50
2013,03,25,15,17,13.60
2013,03,25,15,18,13.70
2013,03,25,15,19,13.80
2013,03,25,15,20,13.70
2013,03,25,15,21,13.50
2013,03,25,15,22,13.30
2013,03,25,15,23,13.10
2013,03,25,15,24,13.00
2013,03,25,15,25,12.80
2013,03,25,15,26,12.80
2013,03,25,15,27,12.80
2013,03,25,15,28,13.00
2013,03,25,15,29,13.10
2013,03,25,15,30,13.40
2013,03,25,15,31,13.50
2013,03,25,15,32,13.60
2013,03,25,15,33,13.50
2013,03,25,15,34,13.30
2013,03,25,15,35,13.10
2013,03,25,15,36,12.90
2013,03,25,15,37,12.80
2013,03,25,15,38,12.80
2013,03,25,15,39,12.80
2013,03,25,15,40,12.70
2013,03,25,15,41,12.60
2013,03,25,15,42,12.50
2013,03,25,15,43,12.50
2013,03,25,15,44,12.50
2013,03,25,15,45,12.60
2013,03,25,15,46,12.80
2013,03,25,15,47,13.00
2013,03,25,15,48,13.10
2013,03,25,15,49,13.20
2013,03,25,15,50,13.30
2013,03,25,15,51,13.40
2013,03,25,15,52,13.50
2013,03,25,15,53,13.60
2013,03,25,15,54,13.60
2013,03,25,15,55,13.60
2013,03,25,15,56,13.70
2013,03,25,15,57,13.70
2013,03,25,15,58,13.70
2013,03,25,15,59,13.80
2013,03,25,16,00,13.80
2013,03,25,16,01,13.80
2013,03,25,16,02,13.90
2013,03,25,16,03,13.90
2013,03,25,16,04,13.90
2013,03,25,16,05,13.90
2013,03,25,16,06,13.90
2013,03,25,16,07,13.90
2013,03,25,16,08,13.80
2013,03,25,16,09,13.80
2013,03,25,16,10,13.80
2013,03,25,16,11,13.90
2013,03,25,16,12,14.00
2013,03,25,16,13,14.10
2013,03,25,16,14,14.00
2013,03,25,16,15,13.90
2013,03,25,16,16,13.80
2013,03,25,16,17,13.80
2013,03,25,16,18,13.80
2013,03,25,16,19,13.80
2013,03,25,16,20,13.80
2013,03,25,16,21,13.70
2013,03,25,16,22,13.70
2013,03,25,16,23,13.70
2013,03,25,16,24,13.50
2013,03,25,16,25,13.40
2013,03,25,16,26,13.30
2013,03,25,16,27,13.30
2013,03,25,16,28,13.30
2013,03,25,16,29,13.30
2013,03,25,16,30,13.30
2013,03,25,16,31,13.30
2013,03,25,16,32,13.30
2013,03,25,16,33,13.40
2013,03,25,16,34,13.50
2013,03,25,16,35,13.50
2013,03,25,16,36,13.60
2013,03,25,16,37,13.60
2013,03,25,16,38,13.70
2013,03,25,16,39,13.60
2013,03,25,16,40,13.60
2013,03,25,16,41,13.60
2013,03,25,16,42,13.60
2013,03,25,16,43,13.60
2013,03,25,16,44,13.60
2013,03,25,16,45,13.60
2013,03,25,16,46,13.60
2013,03,25,16,47,13.70
2013,03,25,16,48,13.70
2013,03,25,16,49,13.70
2013,03,25,16,50,13.80
2013,03,25,16,51,13.80
2013,03,25,16,52,13.80
2013,03,25,16,53,13.80
2013,03,25,16,54,13.90
2013,03,25,16,55,13.80
2013,03,25,16,56,13.80
2013,03,25,16,57,13.80
2013,03,25,16,58,13.70
2013,03,25,16,59,13.60
2013,03,25,17,00,13.50
2013,03,25,17,01,13.30
2013,03,25,17,02,13.30
2013,03,25,17,03,13.20
2013,03,25,17,04,13.20
2013,03,25,17,05,13.20
2013,03,25,17,06,13.10
2013,03,25,17,07,13.10
2013,03,25,17,08,13.10
2013,03,25,17,09,13.10
2013,03,25,17,10,13.10
2013,03,25,17,11,13.10
2013,03,25,17,12,13.10
2013,03,25,17,13,13.10
2013,03,25,17,14,13.10
2013,03,25,17,15,13.10
2013,03,25,17,16,13.20
2013,03,25,17,17,13.20
2013,03,25,17,18,13.30
2013,03,25,17,19,13.30
2013,03,25,17,20,13.30
2013,03,25,17,21,13.40
2013,03,25,17,22,13.40
2013,03,25,17,23,13.50
2013,03,25,17,24,13.60
2013,03,25,17,25,13.70
2013,03,25,17,26,13.70
2013,03,25,17,27,13.80
2013,03,25,17,28,13.80
2013,03,25,17,29,13.80
2013,03,25,17,30,13.90
2013,03,25,17,31,13.90
2013,03,25,17,32,13.80
2013,03,25,17,33,13.80
2013,03,25,17,34,13.70
2013,03,25,17,35,13.70
2013,03,25,17,36,13.60
2013,03,25,17,37,13.60
2013,03,25,17,38,13.50
2013,03,25,17,39,13.40
2013,03,25,17,40,13.40
2013,03,25,17,41,13.50
2013,03,25,17,42,13.50
2013,03,25,17,43,13.50
2013,03,25,17,44,13.50
2013,03,25,17,45,13.50
2013,03,25,17,46,13.50
2013,03,25,17,47,13.50
2013,03,25,17,48,13.50
2013,03,25,17,49,13.50
2013,03,25,17,50,13.40
2013,03,25,17,51,13.30